EDT,Max TemperatureF,Mean TemperatureF,Min TemperatureF,Max Dew PointF,MeanDew PointF,Min DewpointF,Max Humidity, Mean Humidity, Min Humidity, Max Sea Level PressureIn, Mean Sea Level PressureIn, Min Sea Level PressureIn, Max VisibilityMiles, Mean VisibilityMiles, Min VisibilityMiles, Max Wind SpeedMPH, Mean Wind SpeedMPH, Max Gust SpeedMPH,PrecipitationIn, CloudCover, Events, WindDirDegrees
2014-5-1,69,56,42,55,46,36,100,72,44,30.02,29.79,29.60,10,7,1,18,6,23,0.42,7,Rain-Thunderstorm,26
2014-5-2,60,51,41,40,37,34,76,60,43,29.78,29.70,29.66,10,10,10,20,7,25,T,6,Rain,270
2014-5-3,63,54,44,41,38,34,89,63,36,29.83,29.74,29.65,10,10,10,21,5,25,0.02,8,,218
2014-5-4,52,47,42,45,38,34,89,73,56,29.70,29.63,29.58,10,9,6,31,14,39,0.18,7,Rain,280
2014-5-5,60,51,42,39,37,34,89,65,40,29.87,29.80,29.72,10,10,10,24,11,30,0.00,5,,298
2014-5-6,60,51,41,38,29,23,82,55,27,30.05,29.90,29.84,10,10,10,23,8,32,T,4,Rain,298
2014-5-7,61,47,32,31,28,24,89,57,25,30.19,30.14,30.07,10,10,10,16,4,21,0.00,0,,283
2014-5-8,69,54,38,50,42,33,89,69,48,30.14,30.10,30.01,10,10,10,12,3,15,0.00,3,,210
2014-5-9,59,55,51,56,53,50,100,93,86,30.17,30.10,29.98,10,5,2,15,6,26,T,8,Thunderstorm,126
2014-5-10,76,68,59,61,57,41,97,72,46,30.00,29.82,29.72,10,8,1,20,6,27,0.07,6,Rain-Thunderstorm,233
2014-5-11,72,61,50,40,35,25,63,41,18,30.02,29.93,29.81,10,10,10,24,12,36,T,1,,288
2014-5-12,81,64,46,51,42,38,82,53,23,30.06,30.01,29.96,10,10,10,17,5,23,T,1,Rain,259
2014-5-13,68,58,48,52,42,39,77,60,42,30.22,30.13,30.00,10,10,10,15,8,21,0.00,4,,104
2014-5-14,75,61,47,57,47,40,86,64,41,30.25,30.20,30.14,10,9,2,15,5,21,0.00,5,,151
2014-5-15,70,65,59,63,60,56,90,83,76,30.25,30.15,30.05,10,9,2,18,10,26,0.00,8,,143
2014-5-16,67,65,63,62,60,59,93,87,81,30.06,29.93,29.77,10,8,2,20,13,35,0.00,8,,138
2014-5-17,65,54,43,62,53,35,93,75,56,30.10,29.93,29.71,10,8,2,15,7,35,0.00,5,,289
2014-5-18,62,51,39,36,33,27,79,56,32,30.15,30.11,30.07,10,10,10,20,9,26,0.00,2,,295
2014-5-19,64,51,38,38,33,27,71,51,30,30.15,30.08,30.02,10,10,10,21,9,37,T,2,,278
2014-5-20,71,57,42,42,38,32,80,53,26,30.07,30.00,29.93,10,10,10,21,7,31,0.00,0,Rain,302
2014-5-21,75,58,41,50,42,34,93,59,25,29.99,29.90,29.83,10,9,1,13,4,17,T,3,Rain,219
2014-5-22,59,55,51,56,53,48,100,89,77,29.88,29.82,29.78,10,6,1,22,4,26,0.23,8,Rain-Thunderstorm,132
2014-5-23,62,58,53,54,52,50,100,86,72,29.95,29.85,29.81,10,7,0,12,5,17,0.00,8,Fog,275
2014-5-24,65,58,51,55,51,48,96,78,60,30.04,29.98,29.90,10,9,2,10,3,12,0.00,7,Thunderstorm,294
2014-5-25,74,59,44,53,48,42,100,67,33,30.08,30.03,29.97,10,5,0,16,5,21,0.00,3,Fog,272
2014-5-26,81,65,49,55,51,47,93,65,37,29.97,29.90,29.81,10,10,5,22,7,27,0.00,3,,261
2014-5-27,83,67,51,66,56,49,93,67,40,29.83,29.78,29.69,10,9,1,24,5,29,0.12,4,Rain-Thunderstorm,250
2014-5-28,54,50,46,49,45,42,93,82,71,30.20,29.97,29.81,10,9,2,16,7,21,0.01,8,Rain,77
2014-5-29,67,53,38,44,41,38,100,70,40,30.19,30.14,30.07,10,10,9,13,4,16,T,3,Rain,126
2014-5-30,71,60,48,50,47,43,89,65,40,30.07,30.03,29.96,10,10,10,23,5,30,0.00,4,,291
2014-5-31,66,55,43,51,46,43,100,73,45,30.28,30.15,30.04,10,9,2,14,4,20,0.00,3,,21